Weather History for Nuiqsut, AK

Change the Weather History Date:

Saturday, May 10, 2014

  Actual Average (PAKU) Record (PAKU)
Temperature  
Mean Temperature 29 °F -  
Max Temperature 37 °F 21 °F 39 °F (2002)
Min Temperature 21 °F 11 °F -8 °F (1983)
Degree Days  
Heating Degree Days 36    
Moisture  
Dew Point 29 °F    
Average Humidity 90    
Maximum Humidity 96    
Minimum Humidity 86    
Precipitation  
Precipitation 0.01 in - - ()
Sea Level Pressure  
Sea Level Pressure 30.24 in    
Wind  
Wind Speed 11 mph (South)    
Max Wind Speed 16 mph    
Max Gust Speed -    
Visibility 10 miles    
Events Rain    
Averages and records for this station are not official NWS values.
T = Trace of Precipitation, MM = Missing Value Source: NWS Daily Summary

Daily Weather History Graph

Daily Weather History Graph

Search for Another Location

Airport:

Trip Planner

Search our weather history database for the weather conditions in past years. The results will help you decide how hot, cold, wet, or windy it might be!

Date:

Astronomy

May. 10, 2014 Rise Set
Actual Time 3:26 AM AKDT 12:42 AM AKDT
Civil Twilight Sun does not rise Sun does not rise
Nautical Twilight Sun does not rise Sun does not rise
Astronomical Twilight Sun does not rise Sun does not rise
Moon 5:45 PM AKDT (5/10) 4:19 AM AKDT (5/10)
Length of Visible Light 24h 00m
Length of Day
21h 16m
Waxing Gibbous, 83% of the Moon is Illuminated
May 10
Waxing Gibbous
May 14
Full
May 21
Last Quarter
May 28
New
Jun 5
First Quarter

Hourly Weather History & Observations

Time (AKDT) Temp. Windchill Dew Point Humidity Pressure Visibility Wind Dir Wind Speed Gust Speed Precip Events Conditions
12:53 AM 23.0 °F 9.6 °F 21.0 °F 92% 30.22 in 10.0 mi East 16.1 mph - N/A   Overcast
1:53 AM 23.0 °F 10.1 °F 21.0 °F 92% 30.21 in 10.0 mi East 15.0 mph - N/A   Overcast
3:53 AM 23.0 °F 10.1 °F 21.0 °F 92% 30.18 in 10.0 mi East 15.0 mph - N/A   Overcast
4:53 AM 21.9 °F 9.2 °F 19.9 °F 92% 30.18 in 10.0 mi East 13.8 mph - N/A   Overcast
5:53 AM 25.0 °F 13.6 °F 21.9 °F 88% 30.18 in 10.0 mi SE 12.7 mph - N/A   Overcast
6:53 AM 26.1 °F 18.4 °F 23.0 °F 88% 30.17 in 10.0 mi ESE 6.9 mph - N/A   Overcast
7:53 AM 28.0 °F 21.7 °F 25.0 °F 88% 30.17 in 10.0 mi SE 5.8 mph - 0.00 in   Overcast
8:53 AM 32.0 °F 24.8 °F 28.9 °F 88% 30.18 in 10.0 mi SSW 8.1 mph - N/A   Overcast
9:53 AM 33.1 °F 26.1 °F 30.0 °F 89% 30.18 in 10.0 mi SSW 8.1 mph - N/A   Overcast
10:53 AM 34.0 °F 28.0 °F 32.0 °F 92% 30.19 in 10.0 mi South 6.9 mph - 0.00 in Rain Light Rain
11:53 AM 36.0 °F 29.6 °F 33.1 °F 89% 30.20 in 10.0 mi South 8.1 mph - 0.00 in Rain Light Rain
12:53 PM 36.0 °F 28.5 °F 34.0 °F 93% 30.22 in 10.0 mi South 10.4 mph - 0.01 in Rain Light Rain
1:53 PM 37.0 °F 29.3 °F 34.0 °F 89% 30.23 in 10.0 mi SSW 11.5 mph - 0.00 in Rain Light Rain
2:53 PM 37.0 °F 28.9 °F 34.0 °F 89% 30.25 in 10.0 mi SSW 12.7 mph - 0.00 in   Overcast
3:53 PM 37.0 °F 29.8 °F 33.1 °F 86% 30.26 in 10.0 mi SW 10.4 mph - N/A   Overcast
4:53 PM 37.0 °F 29.3 °F 33.1 °F 86% 30.28 in 10.0 mi SW 11.5 mph - N/A   Overcast
5:53 PM 37.0 °F 30.4 °F 33.1 °F 86% 30.30 in 10.0 mi SW 9.2 mph - N/A   Partly Cloudy
6:53 PM 36.0 °F 29.0 °F 33.1 °F 89% 30.31 in 10.0 mi WSW 9.2 mph - N/A   Mostly Cloudy
7:53 PM 36.0 °F 29.6 °F 33.1 °F 89% 30.32 in 10.0 mi SSW 8.1 mph - N/A   Partly Cloudy
8:53 PM 35.1 °F 31.0 °F 33.1 °F 92% 30.33 in 10.0 mi SSW 4.6 mph - N/A   Overcast
9:53 PM 34.0 °F 28.8 °F 33.1 °F 96% 30.34 in 10.0 mi WSW 5.8 mph - N/A   Overcast
10:53 PM 33.1 °F 26.9 °F 32.0 °F 96% 30.34 in 10.0 mi SSW 6.9 mph - N/A   Partly Cloudy
11:53 PM 30.9 °F 23.5 °F 30.0 °F 96% 30.35 in 10.0 mi SW 8.1 mph - N/A   Clear